📊 Raw Sensor Data
Showing records 42751 to 42775 of 85,004 total
| ID | Distance (ft) | Battery V | Battery A | Int Temp (°F) | Int Humid (%) | Ext Temp (°F) | Solar V | RSSI | SNR | Time Stamp |
|---|---|---|---|---|---|---|---|---|---|---|
| 42266 | 15.5 | 3.99 | 0 | 83 | 43 | 85 | 5.10 | -73 | 8 | 06/01/2025 11:45 AM |
| 42265 | 15.5 | 3.99 | 0 | 82 | 44 | 84 | 5.10 | -73 | 8 | 06/01/2025 11:30 AM |
| 42264 | 15.6 | 3.99 | 0 | 81 | 44 | 81 | 5.10 | -71 | 8 | 06/01/2025 11:15 AM |
| 42263 | 15.5 | 3.99 | 0 | 80 | 43 | 82 | 5.10 | -74 | 7 | 06/01/2025 11:00 AM |
| 42262 | 15.6 | 3.99 | 0 | 80 | 43 | 83 | 5.10 | -74 | 7 | 06/01/2025 10:45 AM |
| 42261 | 15.6 | 3.99 | 0 | 79 | 43 | 82 | 5.10 | -74 | 7 | 06/01/2025 10:30 AM |
| 42260 | 15.6 | 3.99 | 0 | 78 | 43 | 82 | 5.10 | -74 | 8 | 06/01/2025 10:00 AM |
| 42259 | 15.6 | 3.99 | 0 | 77 | 43 | 80 | 5.10 | -76 | 8 | 06/01/2025 09:45 AM |
| 42258 | 15.6 | 4.09 | 5 | 76 | 43 | 79 | 5.10 | -73 | 8 | 06/01/2025 09:30 AM |
| 42257 | 15.6 | 3.99 | 0 | 75 | 44 | 79 | 5.10 | -74 | 7 | 06/01/2025 09:15 AM |
| 42256 | 15.6 | 3.99 | 5 | 74 | 44 | 77 | 5.10 | -73 | 8 | 06/01/2025 09:00 AM |
| 42255 | 15.6 | 3.99 | 0 | 73 | 44 | 76 | 5.10 | -74 | 8 | 06/01/2025 08:45 AM |
| 42254 | 15.6 | 3.99 | 5 | 72 | 43 | 78 | 5.10 | -71 | 8 | 06/01/2025 08:30 AM |
| 42253 | 15.5 | 4.13 | 0 | 70 | 43 | 73 | 5.10 | -74 | 7 | 06/01/2025 08:15 AM |
| 42252 | 15.5 | 3.99 | 5 | 68 | 44 | 74 | 5.10 | -74 | 7 | 06/01/2025 08:00 AM |
| 42251 | 15.5 | 4.11 | 73 | 68 | 43 | 72 | 4.50 | -72 | 8 | 06/01/2025 07:45 AM |
| 42250 | 15.5 | 4.11 | 38 | 67 | 43 | 71 | 4.50 | -73 | 8 | 06/01/2025 07:30 AM |
| 42249 | 15.5 | 4.00 | 30 | 66 | 42 | 70 | 4.50 | -71 | 7 | 06/01/2025 07:15 AM |
| 42248 | 15.5 | 4.01 | 0 | 65 | 42 | 70 | 4.50 | -72 | 8 | 06/01/2025 07:00 AM |
| 42247 | 15.3 | 3.98 | 0 | 60 | 42 | 66 | 4.50 | -71 | 8 | 06/01/2025 06:30 AM |
| 42246 | 15.3 | 3.91 | -6 | 59 | 42 | 61 | 4.50 | -71 | 6 | 06/01/2025 06:15 AM |
| 42245 | 15.3 | 3.90 | -32 | 59 | 43 | 60 | 4.50 | -72 | 9 | 06/01/2025 06:00 AM |
| 42244 | 15.3 | 3.91 | -9 | 59 | 43 | 60 | 1.90 | -72 | 7 | 06/01/2025 05:45 AM |
| 42243 | 15.3 | 3.91 | -5 | 59 | 43 | 60 | 0.50 | -71 | 8 | 06/01/2025 05:30 AM |
| 42242 | 15.3 | 3.91 | -5 | 59 | 43 | 60 | 0.00 | -71 | 7 | 06/01/2025 05:15 AM |